Radiation Dose at Monitoring Post of Fukushima Daini Nuclear Power Station
Date,Time,MP-1(microSv/h),MP-2(microSv/h),MP-3(microSv/h),MP-4(microSv/h),MP-5(microSv/h),MP-6(microSv/h),MP-7(microSv/h),Wind Direction,Wind Velocity(m/s),Rain
2021/02/16,00:00,0.170,0.152,0.247,0.235,0.233,0.134,0.082,west,11.5,No
2021/02/16,00:10,0.172,0.153,0.245,0.236,0.233,0.134,0.083,west,15.8,No
2021/02/16,00:20,0.169,0.153,0.246,0.234,0.234,0.133,0.082,west,14.7,No
2021/02/16,00:30,0.171,0.153,0.246,0.235,0.234,0.134,0.082,west,11.7,No
2021/02/16,00:40,0.170,0.153,0.247,0.236,0.233,0.134,0.083,west,9.2,No
2021/02/16,00:50,0.170,0.153,0.246,0.235,0.234,0.134,0.082,west-southwest,5.9,No
2021/02/16,01:00,0.170,0.153,0.247,0.234,0.235,0.134,0.082,west,11.1,No
2021/02/16,01:10,0.171,0.154,0.247,0.236,0.233,0.133,0.083,west-southwest,9.0,No
2021/02/16,01:20,0.170,0.151,0.247,0.236,0.234,0.135,0.083,west,9.5,No
2021/02/16,01:30,0.170,0.154,0.247,0.235,0.234,0.135,0.082,west,11.2,No
2021/02/16,01:40,0.172,0.153,0.248,0.235,0.233,0.135,0.083,west,9.0,No
2021/02/16,01:50,0.170,0.152,0.247,0.236,0.235,0.134,0.084,west,8.5,No
2021/02/16,02:00,0.171,0.152,0.248,0.235,0.234,0.135,0.083,west-northwest,9.2,No
2021/02/16,02:10,0.171,0.153,0.248,0.235,0.233,0.134,0.082,west,7.0,No
2021/02/16,02:20,0.171,0.152,0.247,0.236,0.233,0.135,0.083,west-northwest,7.4,No
2021/02/16,02:30,0.172,0.152,0.247,0.236,0.236,0.135,0.083,west,12.0,No
2021/02/16,02:40,0.171,0.153,0.247,0.236,0.234,0.135,0.082,west,11.7,No
2021/02/16,02:50,0.171,0.153,0.248,0.235,0.233,0.135,0.083,west,10.9,No
2021/02/16,03:00,0.171,0.153,0.248,0.237,0.235,0.135,0.083,west,7.0,No
2021/02/16,03:10,0.172,0.152,0.249,0.236,0.235,0.134,0.083,west,9.2,No
2021/02/16,03:20,0.171,0.153,0.249,0.235,0.233,0.135,0.083,west,9.5,No
2021/02/16,03:30,0.172,0.153,0.247,0.235,0.234,0.134,0.083,west,13.7,Yes
2021/02/16,03:40,0.171,0.152,0.249,0.237,0.234,0.135,0.083,west,10.4,Yes
2021/02/16,03:50,0.172,0.153,0.249,0.237,0.235,0.136,0.084,west,6.1,No
2021/02/16,04:00,0.173,0.153,0.249,0.236,0.234,0.137,0.083,west,5.8,No
2021/02/16,04:10,0.172,0.154,0.249,0.237,0.235,0.136,0.084,west,8.7,No
2021/02/16,04:20,0.172,0.152,0.248,0.236,0.234,0.135,0.083,west,10.1,No
2021/02/16,04:30,0.171,0.153,0.248,0.237,0.233,0.135,0.083,west,9.5,No
2021/02/16,04:40,0.173,0.153,0.248,0.236,0.236,0.135,0.083,west,12.0,No
2021/02/16,04:50,0.172,0.153,0.249,0.236,0.234,0.136,0.082,west-southwest,10.9,No
2021/02/16,05:00,0.171,0.153,0.248,0.237,0.235,0.135,0.083,west,10.6,No
2021/02/16,05:10,0.172,0.153,0.248,0.236,0.235,0.135,0.083,west,7.5,No
2021/02/16,05:20,0.172,0.154,0.249,0.235,0.234,0.134,0.084,west,9.0,No
2021/02/16,05:30,0.173,0.152,0.247,0.237,0.235,0.135,0.084,west,10.4,No
2021/02/16,05:40,0.171,0.153,0.249,0.236,0.235,0.135,0.083,west-northwest,7.0,No
2021/02/16,05:50,0.172,0.153,0.246,0.237,0.235,0.135,0.082,west-northwest,8.3,No
2021/02/16,06:00,0.171,0.153,0.249,0.236,0.235,0.135,0.083,west,5.7,No
2021/02/16,06:10,0.171,0.153,0.249,0.236,0.235,0.135,0.083,west-northwest,3.5,No
2021/02/16,06:20,0.172,0.153,0.248,0.237,0.234,0.135,0.083,west-northwest,3.5,No
2021/02/16,06:30,0.172,0.154,0.249,0.237,0.233,0.135,0.083,west,3.3,No
2021/02/16,06:40,0.172,0.154,0.249,0.236,0.235,0.134,0.083,west,2.8,No
2021/02/16,06:50,0.173,0.154,0.250,0.236,0.234,0.135,0.083,west-northwest,1.1,No
2021/02/16,07:00,0.172,0.153,0.247,0.236,0.235,0.134,0.084,west,4.8,No
2021/02/16,07:10,0.172,0.154,0.249,0.236,0.233,0.135,0.083,west-southwest,5.3,No
2021/02/16,07:20,0.171,0.154,0.248,0.237,0.235,0.135,0.083,west,10.4,No
2021/02/16,07:30,0.172,0.152,0.250,0.237,0.234,0.135,0.083,west,11.2,No
2021/02/16,07:40,0.173,0.153,0.248,0.237,0.234,0.136,0.083,west,10.6,No
2021/02/16,07:50,0.172,0.154,0.248,0.237,0.235,0.136,0.084,west,11.7,No
2021/02/16,08:00,0.172,0.154,0.248,0.237,0.234,0.135,0.084,west,11.7,No
2021/02/16,08:10,0.172,0.154,0.249,0.236,0.234,0.136,0.084,west,14.2,No
2021/02/16,08:20,0.173,0.154,0.248,0.237,0.234,0.135,0.083,west,13.4,No
2021/02/16,08:30,0.173,0.154,0.250,0.236,0.235,0.135,0.083,west,11.2,No
2021/02/16,08:40,0.172,0.153,0.249,0.236,0.235,0.135,0.082,west-southwest,10.6,No
2021/02/16,08:50,0.173,0.153,0.251,0.237,0.236,0.135,0.083,west,7.1,No
2021/02/16,09:00,0.174,0.154,0.250,0.236,0.235,0.136,0.084,west,8.7,No
2021/02/16,09:10,0.172,0.153,0.249,0.238,0.234,0.135,0.083,west-southwest,9.3,No
2021/02/16,09:20,0.173,0.154,0.249,0.237,0.234,0.136,0.083,west,7.8,No
2021/02/16,09:30,0.173,0.154,0.249,0.236,0.236,0.136,0.083,west,8.2,No
2021/02/16,09:40,0.172,0.154,0.249,0.236,0.235,0.136,0.083,west,10.6,No
2021/02/16,09:50,0.172,0.154,0.250,0.236,0.234,0.135,0.084,west,8.2,No
2021/02/16,10:00,0.173,0.154,0.247,0.238,0.235,0.136,0.084,west,7.9,No
2021/02/16,10:10,0.172,0.153,0.248,0.236,0.234,0.136,0.084,west,7.5,No
2021/02/16,10:20,0.173,0.154,0.249,0.236,0.234,0.135,0.083,west,5.9,No
2021/02/16,10:30,0.172,0.154,0.248,0.237,0.236,0.136,0.083,west,7.3,No
2021/02/16,10:40,0.171,0.153,0.248,0.235,0.233,0.136,0.083,west,8.1,No
2021/02/16,10:50,0.173,0.154,0.247,0.238,0.235,0.136,0.083,west,11.1,No
2021/02/16,11:00,0.172,0.154,0.246,0.236,0.235,0.136,0.083,west,9.8,No
2021/02/16,11:10,0.172,0.154,0.246,0.236,0.236,0.136,0.083,west,7.3,No
2021/02/16,11:20,0.173,0.155,0.247,0.236,0.236,0.136,0.083,west,12.3,No
2021/02/16,11:30,0.172,0.153,0.248,0.236,0.234,0.137,0.084,west,9.2,No
2021/02/16,11:40,0.171,0.154,0.249,0.238,0.236,0.137,0.084,west,10.0,No
2021/02/16,11:50,0.173,0.154,0.249,0.236,0.235,0.136,0.083,west,12.2,No
2021/02/16,12:00,0.173,0.154,0.249,0.238,0.237,0.137,0.084,west,11.5,No
2021/02/16,12:10,0.174,0.155,0.249,0.237,0.235,0.137,0.084,west,8.4,No
2021/02/16,12:20,0.172,0.155,0.250,0.238,0.235,0.136,0.084,west,9.3,No
2021/02/16,12:30,0.174,0.154,0.249,0.238,0.236,0.137,0.084,west,10.6,No
2021/02/16,12:40,0.173,0.155,0.249,0.239,0.234,0.137,0.084,west-northwest,6.0,No
2021/02/16,12:50,0.174,0.155,0.250,0.237,0.237,0.137,0.083,west-northwest,7.5,No
2021/02/16,13:00,0.172,0.154,0.249,0.239,0.234,0.137,0.084,west-northwest,10.6,No
2021/02/16,13:10,0.174,0.154,0.249,0.238,0.237,0.137,0.084,west-northwest,11.2,No
2021/02/16,13:20,0.173,0.155,0.251,0.238,0.235,0.137,0.084,west,9.5,No
2021/02/16,13:30,0.174,0.154,0.250,0.239,0.237,0.137,0.084,west,11.2,No
2021/02/16,13:40,0.174,0.155,0.249,0.238,0.236,0.136,0.084,west,12.8,No
2021/02/16,13:50,0.173,0.154,0.250,0.238,0.236,0.136,0.084,west,10.9,No
2021/02/16,14:00,0.173,0.154,0.250,0.237,0.234,0.136,0.084,west-southwest,14.0,No
2021/02/16,14:10,0.174,0.154,0.247,0.238,0.236,0.137,0.084,west-southwest,10.7,No
2021/02/16,14:20,0.173,0.153,0.247,0.238,0.234,0.136,0.084,west,10.9,No
2021/02/16,14:30,0.173,0.154,0.249,0.238,0.235,0.136,0.084,west,15.4,No
2021/02/16,14:40,0.172,0.154,0.246,0.237,0.236,0.136,0.084,west,12.6,No
2021/02/16,14:50,0.173,0.154,0.247,0.237,0.237,0.137,0.083,west,9.0,No
2021/02/16,15:00,0.173,0.154,0.246,0.238,0.237,0.137,0.083,west,11.8,No
2021/02/16,15:10,0.173,0.154,0.247,0.239,0.236,0.136,0.083,west,12.0,No
2021/02/16,15:20,0.173,0.153,0.248,0.238,0.236,0.135,0.084,west-northwest,14.2,No
2021/02/16,15:30,0.173,0.154,0.249,0.239,0.237,0.136,0.084,west-northwest,10.7,No
2021/02/16,15:40,0.173,0.155,0.249,0.238,0.237,0.135,0.083,west,9.3,No
2021/02/16,15:50,0.173,0.155,0.250,0.238,0.236,0.137,0.084,west,6.5,No
2021/02/16,16:00,0.174,0.154,0.250,0.239,0.237,0.137,0.084,west,7.3,No
2021/02/16,16:10,0.173,0.155,0.251,0.238,0.236,0.136,0.083,west,7.6,No
2021/02/16,16:20,0.174,0.154,0.250,0.238,0.235,0.136,0.083,west,11.5,No
2021/02/16,16:30,0.173,0.153,0.250,0.238,0.236,0.136,0.084,west,11.2,No
2021/02/16,16:40,0.174,0.154,0.251,0.238,0.236,0.137,0.083,west,12.6,No
2021/02/16,16:50,0.174,0.155,0.251,0.239,0.237,0.137,0.084,west,9.3,No
2021/02/16,17:00,0.173,0.155,0.251,0.239,0.236,0.136,0.084,west-northwest,7.6,No
2021/02/16,17:10,0.172,0.154,0.250,0.239,0.236,0.136,0.083,west-northwest,8.4,No
2021/02/16,17:20,0.174,0.155,0.253,0.238,0.236,0.137,0.084,west-northwest,10.3,No
2021/02/16,17:30,0.174,0.155,0.252,0.239,0.236,0.136,0.084,west-northwest,10.9,Yes
2021/02/16,17:40,0.175,0.156,0.252,0.239,0.237,0.137,0.084,west,12.0,Yes
2021/02/16,17:50,0.176,0.157,0.252,0.239,0.236,0.137,0.085,west,15.5,No
2021/02/16,18:00,0.176,0.156,0.253,0.240,0.237,0.137,0.086,west,13.4,No
2021/02/16,18:10,0.177,0.156,0.253,0.240,0.237,0.138,0.085,west,10.6,No
2021/02/16,18:20,0.176,0.156,0.254,0.239,0.236,0.137,0.085,west,11.5,No
2021/02/16,18:30,0.175,0.157,0.253,0.239,0.236,0.137,0.084,west,10.3,No
2021/02/16,18:40,0.174,0.156,0.253,0.239,0.236,0.137,0.084,west,7.3,No
2021/02/16,18:50,0.176,0.156,0.252,0.239,0.237,0.136,0.084,west,6.9,No
2021/02/16,19:00,0.174,0.155,0.251,0.238,0.236,0.137,0.085,west,7.1,No
2021/02/16,19:10,0.175,0.155,0.251,0.238,0.236,0.137,0.084,west,5.6,No
2021/02/16,19:20,0.174,0.155,0.251,0.239,0.236,0.137,0.084,west,5.8,No
2021/02/16,19:30,0.174,0.155,0.251,0.237,0.236,0.136,0.084,west,7.3,No
2021/02/16,19:40,0.174,0.154,0.252,0.239,0.235,0.137,0.084,west,7.3,No
2021/02/16,19:50,0.173,0.155,0.250,0.239,0.236,0.136,0.084,west,7.7,No
2021/02/16,20:00,0.174,0.155,0.251,0.238,0.237,0.136,0.084,west,6.4,No
2021/02/16,20:10,0.173,0.155,0.251,0.238,0.236,0.137,0.084,west-southwest,4.7,No
2021/02/16,20:20,0.173,0.154,0.252,0.238,0.236,0.136,0.084,west-southwest,4.2,No
2021/02/16,20:30,0.174,0.154,0.250,0.238,0.234,0.136,0.083,west-southwest,6.0,No
2021/02/16,20:40,0.174,0.154,0.251,0.239,0.236,0.136,0.084,southwest,7.5,No
2021/02/16,20:50,0.173,0.155,0.251,0.238,0.235,0.136,0.083,west-southwest,5.8,No
2021/02/16,21:00,0.174,0.155,0.251,0.238,0.236,0.136,0.084,west-southwest,5.3,No
2021/02/16,21:10,0.173,0.154,0.251,0.238,0.235,0.136,0.085,west-southwest,6.4,No
2021/02/16,21:20,0.174,0.155,0.250,0.239,0.236,0.136,0.083,west-southwest,5.7,No
2021/02/16,21:30,0.173,0.154,0.251,0.239,0.236,0.136,0.084,southwest,5.0,No
2021/02/16,21:40,0.173,0.154,0.251,0.237,0.236,0.136,0.084,southwest,3.5,No
2021/02/16,21:50,0.173,0.155,0.250,0.239,0.235,0.136,0.084,west-southwest,4.1,No
2021/02/16,22:00,0.174,0.154,0.251,0.237,0.235,0.136,0.084,west,5.9,No
2021/02/16,22:10,0.174,0.155,0.251,0.238,0.235,0.136,0.083,west,5.2,No
2021/02/16,22:20,0.173,0.154,0.251,0.239,0.235,0.137,0.084,west,5.3,No
2021/02/16,22:30,0.173,0.154,0.251,0.238,0.237,0.136,0.084,west,4.7,No
2021/02/16,22:40,0.174,0.154,0.252,0.239,0.236,0.137,0.084,west,4.5,No
2021/02/16,22:50,0.174,0.155,0.251,0.239,0.236,0.136,0.084,west-southwest,2.8,No
2021/02/16,23:00,0.173,0.154,0.251,0.238,0.235,0.136,0.084,southwest,0.6,No
2021/02/16,23:10,0.174,0.155,0.249,0.238,0.236,0.137,0.084,west-southwest,0.8,No
2021/02/16,23:20,0.173,0.155,0.250,0.238,0.235,0.136,0.084,west-southwest,1.9,No
2021/02/16,23:30,0.174,0.154,0.251,0.237,0.236,0.136,0.084,west-southwest,2.6,No
2021/02/16,23:40,0.173,0.155,0.250,0.239,0.236,0.136,0.085,west-southwest,4.4,No
2021/02/16,23:50,0.174,0.155,0.250,0.238,0.238,0.136,0.084,west,4.5,No
